User: anonymous   Login
Location: Unspecified
(40.8819°N, 0.0000°E)
Time: 13:28:27
(UTC+00:00)
Language:

CAS-4B - Orbit

View from above orbital plane
View from above orbital plane
View from above satellite
View from above satellite

Ground track
Ground track

The orbit data is extracted from the following two-line orbital elements,

1 42759U 17034B   24103.82892262  .00015306  00000-0  60153-3 0  9994
2 42759  43.0139 235.2170 0013810 277.7999  82.1284 15.25397515377412
Epoch (UTC): 12 April 2024 19:53:38
Eccentricity: 0.0013810
inclination: 43.0139°
perigee height: 480 km
apogee height: 499 km
right ascension of ascending node: 235.2170°
argument of perigee: 277.7999°
revolutions per day: 15.25397515
mean anomaly at epoch: 82.1284°
orbit number at epoch: 37741

The dashed part of the orbit path shows where the satellite is in the earth's shadow,  

DLR